Location: Chircca
(13.7944°S, 72.0608°W)
Time: 04:59:59
(UTC+00:00)

Cosmos 2285 Rocket - Pass Details

Date: 14 July 2020
Orbit: 971 x 998 km, 74.0° (Epoch: 14 August)

Event Time Altitude Azimuth Distance (km) Brightness Sun altitude
Rises 00:14:56 0° 347° (NNW) 3,652 7.4 -23.5°
Reaches altitude 10° 00:17:27 10° 347° (NNW) 2,713 6.7 -24.1°
Maximum altitude 00:23:45 88° 259° (W) 987 3.9 -25.6°
Enters shadow 00:26:20 39° 169° (S) 1,439 4.6 -26.2°
